Regional Weather Roundup
Issued by NWS Goodland, KS

Home | Current Version | Previous Version | Text Only | Print | Product List | Glossary On
Versions: 1 2 3 4 5 6 7 8 9 10 11 12 13 14 15 16 17 18 19 20 21 22 23 24 25 26 27 28 29 30 31 32 33 34 35 36 37 38 39 40 41 42 43 44 45 46 47 48 49 50
000
ASUS43 KGLD 131508
RWRGLD

GOODLAND FORECAST AREA HOURLY WEATHER ROUNDUP
NATIONAL WEATHER SERVICE GOODLAND KS
900 AM MDT SUN JUL 13 2014

...OFFICIAL OBSERVATIONS...

CITY           SKY/WX    TMP DP  RH WIND       PRES   REMARKS
GOODLAND KS    MOSUNNY   77  62  59 NE7       30.24R
HILL CITY KS   PTSUNNY   80  62  54 NE10      30.16R
IMPERIAL NEB   SUNNY     76  64  66 CALM      30.23R
MCCOOK NEB     MOSUNNY   79  67  66 N7        30.17F
AKRON CO       SUNNY     73  62  68 NW7       30.31R
BURLINGTON CO  MOSUNNY   76  62  62 NE10      30.26R
LIMON CO       SUNNY     72  61  68 N6        30.33S
$$

...UNOFFICIAL OBSERVATIONS...

CITY           SKY/WX    TMP DP  RH WIND       PRES   REMARKS
COLBY KS       SUNNY     79  66  65 NE8       30.23R
GOVE KS          N/A     77  32  19 CALM        N/A
LENORA KS        N/A     78  32  18 MISG        N/A
NORTON KS      SUNNY     79  59  50 N9        30.14F
OBERLIN KS     FAIR      81  64  57 N9        30.18S
ST FRANCIS KS  MOSUNNY   79  61  53 N5        30.22R
TRIBUNE KS     PTSUNNY   70 N/A N/A SW5       30.27R
WAKEENEY KS      N/A     76  61  58 MISG        N/A
KIT CARSON CO    N/A     72  65  78 NE6G13      N/A
$$


USA.gov is the U.S. government's official web portal to all federal, state and local government web resources and services.